DECAYED

COSMOS 2251 DEB, 34342 (Decayed)

Orbit data source: Space-Track

COSMOS 2251 DEB, 34342 was space debris in LEO originally from a launch on Wed, 16 Jun 1993 UTC launched from the Plesetsk Missile And Space Complex (PKMTR). The debris from Iridium 33, an American commercial communications satellite, has been tracked extensively since its accidental collision with the defunct Russian satellite Cosmos 2251 in 2009. This event, occurring at high speed in low Earth orbit (LEO), generated thousands of pieces of space debris, significantly increasing the risk of further collisions. The Iridium 33 debris cloud has impacted space traffic management and orbital debris mitigation strategies, making it a subject of ongoing study in space situational awareness.

Not visible in the next 10 days
Identifier
34342, 1993-036PQ
Orbit
Decayed
Country
Flag of CISCIS
Related business
Manufacturer
Unknown
Mission
Decayed spacecraft
Bus & Motor
Unknown
Mass
Unknown
Launch date (UTC)
1993-06-16 (33 years ago)
Launch vehicle
Unknown
Launch site
Plesetsk Missile And Space Complex (PKMTR)
Object type
Payload
Rocket body
Debris
Shape & HBR
Unknown shape, 0.1 m
Radar Cross Section
Medium (>0.1 m² and <1 m²)

Expand to show TLE details & history
Last TLE update: 1 year ago

TLE from 1 year ago
0 COSMOS 2251 DEB
1 34342U 93036PQ  25188.82380962  .13032321  18000-5  37325-2 0  9990
2 34342  74.1180  95.9230 0016258 213.9229 146.0986 16.27021455877455
Epoch: 2025-07-07T19:46Z
TLE epoch observation values (Epoch: 2025-07-07T19:46:17.151Z)
Latitude
-0.00005°
Longitude
-126.67609°
Altitude
212.284 km
Speed
7.774 km/s
True Right ascension
06h 23m 41s
True Declination
0° 00' 00"
Sunlit
Object was in daylight at epoch
Visualization orbit readout
Latitude
Unknown
Longitude
Unknown
Altitude
Unknown
Speed
Unknown
Apparent Right ascension
Unknown
Apparent Declination
Unknown
Sunlit
N/A
Visualization observer readout
Local Sidereal Time
07:41:40
Azimuth
Unknown
Elevation
Unknown
Doppler factor
Unknown
Orbital elements
Apogee altitude
208.657 km
Perigee altitude
187.275 km
Semi-major axis
6,576.103 km
Eccentricity
0.00163
Inclination
74.118°
RAAN
95.923°
Arg. of periapsis
213.9229°
True anomaly
146.20234°
Mean anomaly
146.0986°
Eccentric anomaly
146.15049°
Mean motion
4.06996 °/min
Orbital period
88.45 mins
BSTAR
0.0037325
Loading maneuver chart data...
Computing Atmospheric mass density...

Documentation

Showing up to 5 results
|